Starlink 11101

operational
NORAD ID: 59715 Int'l Des: 2024-088 Owner: SPXS Country: US Constellation: starlink
LEOCIRCULAR

Über Starlink 11101

Beschreibung wird geladen...

Live-Position

3D-Globus wird geladen...

Nächste Überflüge

Höhenverlauf

Altitude vs Time

uPlot chart will show altitude changes over time

Zweizeiliger Elementsatz

1 59715U 24088H 26034.56408234 -.00001490 00000-0 -74473-5 0 9992
2 59715 53.1577 134.4075 0000963 85.1783 274.9345 15.69706472100913
Epoch: 3. Feb. 2026 • Age: 23 hours

Aktueller Status

Höhe 362.0 km
Geschwindigkeit 7.69 km/s
Subsatellitenpunkt -7.50°S, 163.1°E
Startdatum 10. Mai 2024
Alter 1.7 years
Typ internet

Technische Details

Klassifizierung Payload
Masse 960.00 kg
Trockenmasse 910.00 kg
Gesamtmasse 960.00 kg
Länge 0.30 m
Durchmesser 4.10 m
Spannweite 29.00 m
Form Box + pan
Hersteller SPXS
Bus-Typ Starlink V2MD
Phasenstatus In Orbit
Besitzer/Staat SPXS/US

Große Konstellationen

Loading constellations...